Previsão horária em Pleso

Hoje, 6 Março, Sábado

Tempo Temperatura Precipitação Vento Pressão Humidade
00:00 -21°C° 0 mm 2 m/s 747 mmHg 98%
01:00 -21°C° 0 mm 2 m/s 748 mmHg 99%
02:00 -21°C° 0 mm 2 m/s 748 mmHg 99%
03:00 -23°C° 0 mm 2 m/s 749 mmHg 99%
04:00 -21°C° 0 mm 2 m/s 749 mmHg 99%
05:00 -21°C° 0 mm 2 m/s 749 mmHg 98%
06:00 -21°C° 0 mm 2 m/s 749 mmHg 98%
07:00 -21°C° 0 mm 2 m/s 749 mmHg 97%
08:00 -20°C° 0 mm 2 m/s 749 mmHg 95%
09:00 -19°C° 0 mm 2 m/s 749 mmHg 94%
10:00 -18°C° 0 mm 2 m/s 750 mmHg 92%
11:00 -17°C° 0 mm 2 m/s 750 mmHg 89%
12:00 -16°C° 0 mm 2 m/s 750 mmHg 87%
13:00 -16°C° 0 mm 2 m/s 750 mmHg 87%
14:00 -16°C° 0 mm 2 m/s 749 mmHg 86%
15:00 -15°C° 0 mm 2 m/s 749 mmHg 86%
16:00 -16°C° 0 mm 2 m/s 749 mmHg 89%
17:00 -17°C° 0 mm 2 m/s 749 mmHg 92%
18:00 -16°C° 0 mm 1 m/s 749 mmHg 95%
19:00 -17°C° 0 mm 1 m/s 749 mmHg 96%
20:00 -17°C° 0 mm 1 m/s 749 mmHg 97%
21:00 -18°C° 0 mm 1 m/s 749 mmHg 98%
22:00 -18°C° 0 mm 1 m/s 749 mmHg 98%
23:00 -18°C° 0 mm 1 m/s 748 mmHg 98%

Amanhã, 7 Março, Domingo

Tempo Temperatura Precipitação Vento Pressão Humidade
00:00 -18°C° 0 mm 1 m/s 748 mmHg 99%
01:00 -21°C° 0 mm 2 m/s 748 mmHg 99%
02:00 -21°C° 0 mm 2 m/s 747 mmHg 99%
03:00 -21°C° 0 mm 2 m/s 747 mmHg 99%
04:00 -23°C° 0 mm 2 m/s 747 mmHg 99%
05:00 -23°C° 0 mm 2 m/s 747 mmHg 99%
06:00 -23°C° 0 mm 2 m/s 746 mmHg 99%
07:00 -21°C° 0 mm 2 m/s 746 mmHg 98%
08:00 -20°C° 0 mm 2 m/s 746 mmHg 96%
09:00 -19°C° 0 mm 3 m/s 746 mmHg 94%
10:00 -18°C° 0 mm 3 m/s 745 mmHg 93%
11:00 -16°C° 0 mm 3 m/s 745 mmHg 92%
12:00 -14°C° 0 mm 3 m/s 744 mmHg 91%
13:00 -14°C° 0 mm 3 m/s 744 mmHg 90%
14:00 -13°C° 0 mm 3 m/s 744 mmHg 89%
15:00 -12°C° 0 mm 4 m/s 743 mmHg 88%
16:00 -14°C° 0 mm 4 m/s 743 mmHg 89%
17:00 -14°C° 0 mm 4 m/s 743 mmHg 90%
18:00 -15°C° 0 mm 4 m/s 743 mmHg 91%
19:00 -15°C° 0 mm 4 m/s 743 mmHg 92%
20:00 -15°C° 0 mm 3 m/s 742 mmHg 92%
21:00 -15°C° 0 mm 3 m/s 742 mmHg 93%
22:00 -16°C° 0 mm 3 m/s 742 mmHg 93%
23:00 -16°C° 0 mm 3 m/s 742 mmHg 93%

Depois de amanhã, 8 Março, Segunda-feira

Tempo Temperatura Precipitação Vento Pressão Humidade
00:00 -16°C° 0 mm 3 m/s 741 mmHg 94%
01:00 -17°C° 0.1 mm 3 m/s 741 mmHg 94%
02:00 -18°C° 0.1 mm 4 m/s 741 mmHg 94%
03:00 -18°C° 0.1 mm 4 m/s 741 mmHg 94%
04:00 -18°C° 0.1 mm 4 m/s 740 mmHg 94%
05:00 -19°C° 0.1 mm 4 m/s 740 mmHg 94%
06:00 -19°C° 0.1 mm 4 m/s 740 mmHg 94%
07:00 -18°C° 0.1 mm 4 m/s 740 mmHg 93%
08:00 -18°C° 0.1 mm 4 m/s 740 mmHg 93%
09:00 -18°C° 0.1 mm 4 m/s 740 mmHg 92%
10:00 -17°C° 0.1 mm 4 m/s 740 mmHg 92%
11:00 -16°C° 0.1 mm 4 m/s 740 mmHg 91%
12:00 -16°C° 0.1 mm 4 m/s 740 mmHg 91%
13:00 -16°C° 0.1 mm 4 m/s 741 mmHg 91%
14:00 -15°C° 0.1 mm 4 m/s 741 mmHg 91%
15:00 -15°C° 0.1 mm 4 m/s 741 mmHg 91%
16:00 -16°C° 0.1 mm 4 m/s 742 mmHg 92%
17:00 -16°C° 0.1 mm 4 m/s 742 mmHg 92%
18:00 -16°C° 0.1 mm 3 m/s 742 mmHg 93%
19:00 -16°C° 0.1 mm 3 m/s 743 mmHg 93%
20:00 -18°C° 0.1 mm 4 m/s 743 mmHg 93%
21:00 -18°C° 0.1 mm 4 m/s 743 mmHg 92%
22:00 -18°C° 0 mm 4 m/s 744 mmHg 92%
23:00 -19°C° 0 mm 4 m/s 744 mmHg 93%

9 Março, Terça-feira

Tempo Temperatura Precipitação Vento Pressão Humidade
00:00 -18°C° 0 mm 3 m/s 744 mmHg 93%
01:00 -19°C° 0 mm 3 m/s 744 mmHg 93%
02:00 -21°C° 0 mm 3 m/s 745 mmHg 94%
03:00 -21°C° 0 mm 3 m/s 745 mmHg 94%
04:00 -22°C° 0 mm 3 m/s 745 mmHg 94%
05:00 -23°C° 0 mm 3 m/s 746 mmHg 95%
06:00 -24°C° 0 mm 3 m/s 746 mmHg 95%
07:00 -24°C° 0 mm 3 m/s 747 mmHg 95%
08:00 -25°C° 0 mm 3 m/s 747 mmHg 95%
09:00 -25°C° 0 mm 3 m/s 748 mmHg 94%
10:00 -24°C° 0 mm 3 m/s 748 mmHg 93%
11:00 -23°C° 0 mm 3 m/s 749 mmHg 92%
12:00 -22°C° 0 mm 3 m/s 749 mmHg 91%
13:00 -22°C° 0 mm 3 m/s 750 mmHg 90%
14:00 -22°C° 0 mm 3 m/s 750 mmHg 90%
15:00 -21°C° 0 mm 3 m/s 751 mmHg 89%
16:00 -22°C° 0 mm 3 m/s 751 mmHg 91%
17:00 -23°C° 0 mm 2 m/s 752 mmHg 94%
18:00 -24°C° 0 mm 2 m/s 752 mmHg 96%
19:00 -25°C° 0 mm 2 m/s 753 mmHg 96%
20:00 -26°C° 0 mm 2 m/s 753 mmHg 97%
21:00 -27°C° 0 mm 2 m/s 754 mmHg 97%
22:00 -28°C° 0 mm 2 m/s 754 mmHg 97%
23:00 -30°C° 0 mm 2 m/s 755 mmHg 97%

10 Março, Quarta-feira

Tempo Temperatura Precipitação Vento Pressão Humidade
00:00 -31°C° 0 mm 2 m/s 755 mmHg 97%
01:00 -31°C° 0 mm 2 m/s 755 mmHg 97%
02:00 -32°C° 0 mm 2 m/s 756 mmHg 97%
03:00 -32°C° 0 mm 2 m/s 756 mmHg 97%
04:00 -34°C° 0 mm 2 m/s 756 mmHg 98%
05:00 -34°C° 0 mm 2 m/s 757 mmHg 98%
06:00 -35°C° 0 mm 2 m/s 757 mmHg 98%
07:00 -30°C° 0 mm 1 m/s 757 mmHg 96%
08:00 -28°C° 0 mm 1 m/s 757 mmHg 94%
09:00 -25°C° 0 mm 1 m/s 757 mmHg 92%
10:00 -23°C° 0 mm 1 m/s 757 mmHg 89%
11:00 -24°C° 0 mm 2 m/s 757 mmHg 87%
12:00 -21°C° 0 mm 2 m/s 757 mmHg 85%
13:00 -20°C° 0 mm 2 m/s 757 mmHg 85%
14:00 -19°C° 0 mm 2 m/s 756 mmHg 86%
15:00 -19°C° 0 mm 3 m/s 756 mmHg 86%
16:00 -21°C° 0 mm 3 m/s 756 mmHg 89%
17:00 -19°C° 0 mm 2 m/s 756 mmHg 93%
18:00 -20°C° 0 mm 2 m/s 756 mmHg 96%
19:00 -20°C° 0 mm 2 m/s 756 mmHg 95%
20:00 -20°C° 0 mm 2 m/s 756 mmHg 95%
21:00 -20°C° 0 mm 2 m/s 756 mmHg 95%
22:00 -20°C° 0 mm 2 m/s 756 mmHg 96%
23:00 -20°C° 0 mm 2 m/s 756 mmHg 96%

11 Março, Quinta-feira

Tempo Temperatura Precipitação Vento Pressão Humidade
00:00 -20°C° 0 mm 2 m/s 755 mmHg 97%
01:00 -21°C° 0 mm 2 m/s 755 mmHg 97%
02:00 -24°C° 0 mm 2 m/s 755 mmHg 98%
03:00 -25°C° 0 mm 2 m/s 756 mmHg 98%
04:00 -25°C° 0 mm 2 m/s 756 mmHg 97%
05:00 -25°C° 0 mm 2 m/s 756 mmHg 96%
06:00 -25°C° 0 mm 2 m/s 756 mmHg 95%
07:00 -24°C° 0 mm 3 m/s 756 mmHg 93%
08:00 -22°C° 0 mm 3 m/s 756 mmHg 91%
09:00 -19°C° 0 mm 3 m/s 756 mmHg 88%
10:00 -17°C° 0 mm 3 m/s 756 mmHg 85%
11:00 -16°C° 0 mm 4 m/s 756 mmHg 81%
12:00 -15°C° 0 mm 4 m/s 756 mmHg 78%
13:00 -14°C° 0 mm 4 m/s 756 mmHg 77%
14:00 -12°C° 0 mm 4 m/s 756 mmHg 76%
15:00 -12°C° 0 mm 4 m/s 756 mmHg 75%
16:00 -14°C° 0 mm 4 m/s 756 mmHg 78%
17:00 -15°C° 0 mm 4 m/s 756 mmHg 82%
18:00 -15°C° 0 mm 3 m/s 756 mmHg 86%
19:00 -16°C° 0 mm 3 m/s 756 mmHg 87%
20:00 -16°C° 0 mm 3 m/s 757 mmHg 89%
21:00 -17°C° 0 mm 3 m/s 757 mmHg 90%
22:00 -17°C° 0 mm 3 m/s 757 mmHg 90%
23:00 -18°C° 0 mm 3 m/s 756 mmHg 90%
Mostrar mais

Necessitamos do seu Consentimento

A Meteoprog e os seus Fornecedores de Serviços podem armazenar e aceder a dados pessoais como cookies, identificadores do dispositivo ou outras tecnologias semelhantes existentes no seu dispositivo e processar estes dados para personalizar conteúdos e anúncios, assim como funcionalidades nas redes sociais e análise de tráfego.

  • Armazenar e/ou aceder a informações no seu dispositivo

    Os cookies, identificadores do dispositivo ou outras informações podem ser armazenados ou acedidos no seu dispositivo, para os fins acima indicados.

  • Anúncios e conteúdos personalizados, medição de anúncios e conteúdos, dados sobre o público-alvo e desenvolvimento de produtos

    Os anúncios e os conteúdos podem ser personalizados com base num perfil. Podem ser adicionados dados adicionais para uma maior personalização dos anúncios e dos conteúdos. A eficácia dos anúncios e dos conteúdos pode ser medida. Podem ser obtidas informações sobre o público que visualizou os anúncios e os conteúdos. Estes dados podem ser usados para desenvolver ou melhorar sistemas, softwares ou a experiência do utilizador.

Ao clicar em "Eu concordo”, permitirá o uso de cookies, identificadores do dispositivo e web beacons mencionados ou outras tecnologias semelhantes. As configurações do navegador do seu dispositivo podem ser alteradas.

Para certos fins, podem ser invocados interesses legítimos ao invés de consentimento. Pode ler mais informação sobre este assunto na nossa Política de Privacidade e Cookies.